TimePST,TemperatureF,Dew PointF,Humidity,Sea Level PressureIn,VisibilityMPH,Wind Direction,Wind SpeedMPH,Gust SpeedMPH,PrecipitationIn,Events,Conditions,WindDirDegrees,DateUTC
12:53 AM,30.0,16.0,56,30.33,9.0,WNW,4.6,-,N/A,,Clear,290,2013-01-01 08:53:00
1:53 AM,30.9,16.0,54,30.34,10.0,Calm,Calm,-,N/A,,Clear,0,2013-01-01 09:53:00
2:53 AM,28.9,15.1,56,30.35,10.0,North,5.8,-,N/A,,Clear,350,2013-01-01 10:53:00
3:53 AM,28.9,16.0,58,30.36,10.0,West,3.5,-,N/A,,Clear,270,2013-01-01 11:53:00
4:53 AM,30.0,16.0,56,30.36,10.0,West,3.5,-,N/A,,Clear,260,2013-01-01 12:53:00
5:53 AM,28.0,15.1,58,30.38,10.0,NNW,3.5,-,N/A,,Clear,340,2013-01-01 13:53:00
6:53 AM,30.0,14.0,51,30.40,10.0,WNW,3.5,-,N/A,,Clear,290,2013-01-01 14:53:00
7:53 AM,30.0,16.0,56,30.43,10.0,NNE,3.5,-,N/A,,Clear,20,2013-01-01 15:53:00
8:53 AM,33.1,15.1,48,30.45,10.0,NW,3.5,-,N/A,,Clear,310,2013-01-01 16:53:00
9:53 AM,37.9,12.9,36,30.45,10.0,SSE,3.5,-,N/A,,Clear,160,2013-01-01 17:53:00
10:53 AM,39.9,12.0,32,30.43,10.0,East,5.8,-,N/A,,Clear,90,2013-01-01 18:53:00
11:53 AM,41.0,10.0,28,30.40,10.0,Variable,3.5,-,N/A,,Clear,0,2013-01-01 19:53:00
12:53 PM,45.0,10.0,24,30.36,10.0,East,3.5,-,N/A,,Clear,80,2013-01-01 20:53:00
1:53 PM,46.4,8.6,22,30.25,10.0,Calm,Calm,-,N/A,,Clear,0,2013-01-01 21:53:00
2:53 PM,46.9,8.1,21,30.34,10.0,East,3.5,-,N/A,,Clear,100,2013-01-01 22:53:00
3:53 PM,46.9,9.0,21,30.34,10.0,East,4.6,-,N/A,,Clear,100,2013-01-01 23:53:00
4:53 PM,44.1,10.0,25,30.35,10.0,ENE,8.1,-,N/A,,Clear,70,2013-01-02 00:53:00
5:53 PM,42.1,10.0,27,30.37,10.0,ENE,4.6,-,N/A,,Clear,60,2013-01-02 01:53:00
6:53 PM,39.9,10.9,31,30.38,10.0,North,4.6,-,N/A,,Clear,10,2013-01-02 02:53:00
7:53 PM,41.0,10.9,29,30.38,10.0,NE,8.1,-,N/A,,Clear,50,2013-01-02 03:53:00
8:53 PM,37.0,10.9,34,30.39,10.0,North,8.1,-,N/A,,Clear,360,2013-01-02 04:53:00
9:53 PM,37.9,10.9,33,30.40,10.0,NE,5.8,-,N/A,,Clear,50,2013-01-02 05:53:00
10:53 PM,37.9,10.9,33,30.39,10.0,NNE,5.8,-,N/A,,Clear,30,2013-01-02 06:53:00
11:53 PM,34.0,10.9,38,30.40,10.0,NNW,4.6,-,N/A,,Clear,340,2013-01-02 07:53:00